FW5295 Weather Reports


time (UTC)temp
F
wind
direction
speed
knots
gust
knots
rain 1hr
in
rain 24hr
in
rain mn
in
humidity
%
barometer
mb
20260831175942 82 232 2.6 7.8 0.00 0.15 0.06 71 1013.3
20260831175442 82 289 1.7 7.8 0.00 0.15 0.06 70 1013.3
20260831174941 83 229 2.6 5.2 0.00 0.15 0.06 73 1012.9
20260831174440 82 227 2.6 8.7 0.00 0.15 0.06 72 1012.9
20260831173942 82 180 5.2 8.7 0.00 0.15 0.06 72 1013.3
20260831173439 81 193 2.6 8.7 0.00 0.15 0.06 72 1013.3
20260831172939 81 180 5.2 6.1 0.00 0.15 0.06 71 1013.3
20260831172438 81 181 2.6 5.2 0.00 0.15 0.06 73 1013.3
20260831171939 81 230 3.5 5.2 0.00 0.15 0.06 71 1013.7
20260831171440 81 185 4.3 7.8 0.00 0.15 0.06 72 1013.7
20260831170937 81 224 3.5 7.8 0.00 0.15 0.06 72 1013.7
20260831170439 81 148 6.1 7.8 0.00 0.15 0.06 71 1013.7
20260831165937 81 217 1.7 6.1 0.00 0.15 0.06 71 1013.7
20260831165700 80 259 2.6 6.1 0.00 0.15 0.06 73 1013.7
20260831164937 80 198 3.5 6.1 0.00 0.15 0.06 73 1014.0
20260831164436 80 239 5.2 6.1 0.00 0.15 0.06 74 1014.0
20260831163936 80 203 3.5 6.1 0.00 0.15 0.06 70 1014.0
20260831163915 80 188 2.6 5.2 0.00 0.15 0.06 72 1014.0
20260831162936 80 186 3.5 5.2 0.00 0.15 0.06 72 1013.7
20260831162434 80 221 1.7 7.0 0.00 0.15 0.06 72 1013.7
20260831161932 79 190 2.6 7.0 0.00 0.15 0.06 72 1013.7
20260831161432 78 203 2.6 7.0 0.00 0.15 0.06 73 1013.7
20260831160932 78 173 2.6 7.0 0.00 0.15 0.06 74 1013.7
20260831160433 78 210 1.7 8.7 0.00 0.15 0.06 76 1014.0
20260831155932 78 194 1.7 11.3 0.00 0.15 0.06 76 1014.0
20260831155430 77 193 3.5 11.3 0.00 0.15 0.06 77 1014.0
20260831154932 77 197 2.6 8.7 0.00 0.15 0.06 78 1013.7
20260831154429 77 248 2.6 6.1 0.00 0.15 0.06 80 1013.7
20260831153931 76 197 1.7 8.7 0.00 0.15 0.06 80 1014.0
20260831153919 76 168 3.5 8.7 0.00 0.15 0.06 82 1014.0
20260831153154 75 200 2.6 8.7 0.00 0.15 0.06 82 1014.0
20260831152427 74 169 3.5 7.8 0.00 0.15 0.06 83 1014.3
20260831151927 74 219 1.7 7.0 0.00 0.15 0.06 84 1014.0
20260831151426 74 168 5.2 7.8 0.00 0.15 0.06 85 1014.0
20260831151410 73 305 0.9 7.8 0.00 0.15 0.06 86 1014.0
20260831150425 73 198 5.2 7.8 0.00 0.15 0.06 87 1014.3
20260831145925 73 166 4.3 7.8 0.00 0.15 0.06 88 1014.0
20260831145423 72 209 1.7 8.7 0.00 0.15 0.06 89 1014.0
20260831144923 71 191 5.2 8.7 0.00 0.15 0.06 90 1014.0
20260831144422 71 162 3.5 7.8 0.00 0.15 0.06 90 1014.3
20260831143923 71 164 3.5 7.8 0.00 0.15 0.06 89 1014.0
20260831143423 71 158 7.8 7.8 0.00 0.15 0.06 88 1014.0
20260831142923 71 173 2.6 7.0 0.00 0.15 0.06 88 1014.3
20260831142435 71 165 4.3 7.0 0.00 0.15 0.06 89 1014.0
20260831141921 71 183 3.5 5.2 0.00 0.15 0.06 90 1014.0
20260831141420 71 177 2.6 5.2 0.00 0.15 0.06 90 1014.0
20260831140921 71 188 1.7 5.2 0.00 0.15 0.06 90 1014.0
20260831140419 71 178 1.7 6.1 0.00 0.15 0.06 90 1013.7
20260831140144 70 138 3.5 7.0 0.03 0.15 0.06 90 1014.0
20260831135618 70 153 2.6 6.1 0.03 0.15 0.06 91 1014.3
20260831135511 70 150 4.3 7.0 0.03 0.15 0.06 91 1014.0
20260831134419 70 184 3.5 6.1 0.03 0.15 0.06 91 1014.0
20260831133919 70 180 4.3 6.1 0.03 0.15 0.06 91 1014.0
20260831133417 69 181 1.7 6.1 0.03 0.15 0.06 92 1014.0
20260831133137 69 165 2.6 6.1 0.03 0.15 0.06 92 1013.7
20260831132640 69 169 3.5 6.1 0.03 0.15 0.06 93 1014.0
20260831131915 69 172 4.3 5.2 0.03 0.15 0.06 93 1014.0
20260831131644 69 155 2.6 6.1 0.03 0.15 0.06 93 1014.0
20260831131134 69 180 3.5 6.1 0.03 0.15 0.06 92 1014.0
20260831130414 69 173 4.3 7.0 0.04 0.15 0.06 91 1014.0
20260831125913 69 159 2.6 7.0 0.02 0.12 0.03 91 1014.0
20260831125413 69 169 2.6 3.5 0.02 0.12 0.03 91 1014.0
20260831125138 69 173 1.7 4.3 0.02 0.12 0.03 91 1014.0
20260831124411 69 153 1.7 5.2 0.02 0.12 0.03 91 1013.7
20260831124131 69 172 2.6 5.2 0.02 0.13 0.03 91 1013.7
20260831123409 69 161 3.5 4.3 0.02 0.13 0.03 91 1013.7
20260831122909 69 150 1.7 3.5 0.02 0.16 0.03 91 1014.0
20260831122407 69 169 3.5 4.3 0.02 0.20 0.03 90 1014.0
20260831121909 69 171 1.7 5.2 0.02 0.20 0.03 89 1013.7
20260831121408 70 169 4.3 5.2 0.02 0.20 0.03 88 1013.7
20260831120908 70 162 2.6 4.3 0.02 0.21 0.03 86 1014.0
20260831120407 71 200 0.9 3.5 0.01 0.21 0.02 85 1013.7
20260831115920 71 242 1.7 4.3 0.00 0.20 0.01 84 1013.7
20260831115405 71 203 1.7 4.3 0.00 0.20 0.01 83 1013.7
20260831114906 72 233 1.7 5.2 0.01 0.20 0.01 81 1013.7
20260831114406 72 183 2.6 5.2 0.01 0.21 0.01 81 1013.7
20260831113904 72 261 1.7 3.5 0.01 0.22 0.01 81 1013.7
20260831113403 72 210 0.9 2.6 0.01 0.22 0.01 80 1013.3
20260831112903 72 240 0.0 2.6 0.01 0.22 0.01 80 1013.7
20260831112403 72 258 1.7 4.3 0.01 0.23 0.01 79 1013.7
20260831111902 72 217 0.9 4.3 0.01 0.23 0.01 80 1013.3
20260831111404 72 212 3.5 3.5 0.01 0.24 0.01 80 1013.3
20260831111126 72 244 1.7 3.5 0.01 0.24 0.01 81 1012.9
20260831110402 71 216 2.6 4.3 0.01 0.24 0.01 82 1012.9
20260831105859 71 180 0.9 4.3 0.01 0.24 0.01 83 1012.9
20260831105358 71 207 1.7 3.5 0.01 0.24 0.01 83 1012.9
20260831104900 71 213 1.7 3.5 0.00 0.23 0.00 83 1012.9
20260831104359 72 230 3.5 3.5 0.00 0.23 0.00 82 1013.3
20260831103858 73 145 1.7 3.5 0.00 0.23 0.00 80 1012.9
20260831103357 73 229 3.5 3.5 0.00 0.23 0.00 78 1012.9
20260831103346 73 216 1.7 3.5 0.00 0.23 0.00 79 1013.3
20260831102356 73 242 2.6 3.5 0.00 0.23 0.00 79 1013.3
20260831101856 73 207 1.7 3.5 0.00 0.23 0.00 79 1012.9
20260831101354 73 179 1.7 3.5 0.00 0.23 0.00 79 1012.9
20260831101117 73 236 1.7 3.5 0.00 0.23 0.00 79 1013.3
20260831100354 73 202 1.7 2.6 0.00 0.23 0.00 79 1012.9
20260831100339 73 205 1.7 2.6 0.00 0.23 0.00 79 1013.3
20260831095354 73 179 1.7 3.5 0.00 0.23 0.00 79 1013.3
20260831094852 73 218 2.6 3.5 0.00 0.23 0.00 79 1012.9
20260831094616 73 187 1.7 3.5 0.00 0.23 0.00 79 1012.9
20260831093851 73 207 0.9 4.3 0.00 0.23 0.00 79 1012.9
20260831093350 73 225 1.7 4.3 0.00 0.23 0.00 79 1013.3
20260831092853 73 189 2.6 3.5 0.00 0.23 0.00 80 1013.3
20260831092350 73 248 1.7 3.5 0.00 0.23 0.00 80 1012.9
20260831091849 73 189 0.0 3.5 0.00 0.23 0.00 80 1013.3
20260831091349 73 208 1.7 3.5 0.00 0.23 0.00 80 1013.3
20260831090849 73 189 1.7 3.5 0.00 0.23 0.00 80 1013.3
20260831090348 73 236 3.5 3.5 0.00 0.23 0.00 80 1012.9
20260831085847 73 216 2.6 3.5 0.00 0.23 0.00 80 1012.9
20260831085348 73 227 2.6 4.3 0.00 0.23 0.00 79 1012.9
20260831084847 73 196 1.7 4.3 0.00 0.23 0.00 79 1012.9
20260831084608 73 194 1.7 3.5 0.00 0.23 0.00 79 1012.9
20260831083845 73 214 1.7 3.5 0.00 0.23 0.00 79 1013.3
20260831083344 73 190 1.7 3.5 0.00 0.23 0.00 79 1012.9
20260831083113 73 160 1.7 3.5 0.00 0.23 0.00 79 1013.3
20260831082616 73 182 1.7 5.2 0.00 0.23 0.00 80 1013.3
20260831081844 73 214 1.7 5.2 0.00 0.23 0.00 80 1013.3
20260831081344 73 212 1.7 3.5 0.00 0.23 0.00 80 1013.3
20260831080842 73 204 0.9 3.5 0.00 0.23 0.00 80 1013.3
20260831080341 73 220 1.7 3.5 0.00 0.23 0.00 80 1013.3
20260831075842 73 209 1.7 3.5 0.00 0.23 0.00 80 1013.3
20260831075340 73 225 1.7 3.5 0.00 0.23 0.00 80 1013.3
20260831074841 73 222 2.6 3.5 0.00 0.23 0.00 80 1013.3
20260831074609 73 239 2.6 3.5 0.00 0.23 0.00 81 1012.9
20260831073839 73 224 2.6 3.5 0.00 0.23 0.00 81 1013.3
20260831073604 73 227 1.7 3.5 0.00 0.23 0.00 81 1013.3
20260831072837 73 212 1.7 3.5 0.00 0.23 0.00 81 1013.7
20260831072604 73 232 2.6 3.5 0.00 0.23 0.00 81 1013.7
20260831072105 74 215 2.6 3.5 0.00 0.23 0.00 81 1014.0
20260831071338 74 241 3.5 4.3 0.00 0.23 0.00 80 1013.7
20260831070836 74 246 4.3 4.3 0.00 0.23 0.00 79 1013.7
20260831070336 74 227 1.7 4.3 0.00 0.23 0.00 78 1013.7
20260831065835 74 226 2.6 4.3 0.00 0.23 0.00 78 1013.7
20260831065335 75 253 1.7 4.3 0.00 0.23 0.00 77 1013.7
20260831065102 75 226 2.6 3.5 0.00 0.23 0.00 77 1013.7
20260831064334 75 224 1.7 3.5 0.00 0.23 0.00 77 1013.7
20260831064050 75 226 1.7 4.3 0.00 0.23 0.00 77 1013.7
20260831063333 75 232 3.5 4.3 0.00 0.23 0.00 77 1013.7
20260831062833 75 223 1.7 4.3 0.00 0.23 0.00 77 1013.7
20260831062553 75 217 1.7 5.2 0.00 0.23 0.00 76 1013.7
20260831061832 75 201 1.7 5.2 0.00 0.23 0.00 76 1013.7
20260831061330 75 260 2.6 4.3 0.00 0.23 0.00 77 1013.3
20260831060829 75 229 2.6 4.3 0.00 0.23 0.00 78 1013.7
20260831060331 75 231 3.5 4.3 0.00 0.23 0.00 78 1013.7
20260831055831 75 234 2.6 4.3 0.00 0.23 0.00 79 1013.3
20260831055328 75 225 1.7 4.3 0.00 0.23 0.00 80 1013.7
20260831054827 75 70 0.0 3.5 0.00 0.23 0.00 80 1013.7
20260831054327 75 212 1.7 3.5 0.00 0.23 0.00 80 1013.7
20260831053828 75 224 1.7 3.5 0.00 0.23 0.00 81 1013.7
20260831053553 75 205 1.7 3.5 0.00 0.23 0.00 81 1013.3
20260831052827 75 228 3.5 3.5 0.00 0.23 0.00 82 1013.7
20260831052326 75 238 1.7 3.5 0.00 0.23 0.00 82 1013.3
20260831052050 75 223 3.5 4.3 0.00 0.23 0.00 82 1013.7
20260831051549 75 230 1.7 4.3 0.00 0.23 0.00 82 1013.7
20260831051050 75 242 1.7 5.2 0.00 0.23 0.00 82 1013.3
20260831050323 75 228 1.7 5.2 0.00 0.23 0.00 83 1013.3
20260831050309 75 236 3.5 5.2 0.00 0.23 0.23 84 1013.3
20260831045323 74 237 3.5 5.2 0.00 0.23 0.23 86 1013.3
20260831044823 74 214 1.7 4.3 0.00 0.23 0.23 87 1013.7
20260831044322 74 221 3.5 4.3 0.00 0.23 0.23 88 1013.7
20260831043820 74 225 3.5 4.3 0.00 0.23 0.23 90 1013.7
20260831043321 73 234 2.6 5.2 0.00 0.23 0.23 91 1013.7
20260831042819 73 220 1.7 5.2 0.00 0.23 0.23 93 1013.7
20260831042319 73 231 2.6 4.3 0.00 0.23 0.23 94 1013.7
20260831042044 72 187 1.7 4.3 0.00 0.23 0.23 96 1013.7
20260831041318 72 220 3.5 4.3 0.00 0.23 0.23 96 1013.7
20260831040817 72 212 1.7 4.3 0.00 0.23 0.23 97 1014.0
20260831040318 72 235 1.7 3.5 0.00 0.23 0.23 97 1014.0
20260831040038 72 226 2.6 3.5 0.01 0.23 0.23 97 1014.3
20260831035318 72 221 1.7 2.6 0.01 0.23 0.23 98 1014.3
20260831034816 71 234 0.9 2.6 0.01 0.23 0.23 98 1014.3
20260831034316 71 223 0.9 1.7 0.01 0.23 0.23 98 1014.3
20260831033815 71 221 0.9 1.7 0.01 0.23 0.23 98 1014.3
20260831033315 71 226 0.0 1.7 0.01 0.23 0.23 98 1014.3
20260831033036 71 189 0.9 1.7 0.01 0.23 0.23 98 1014.3
20260831032314 71 220 1.7 2.6 0.01 0.23 0.23 98 1014.3
20260831031813 72 180 1.7 2.6 0.01 0.23 0.23 98 1014.7
20260831031312 72 148 1.7 1.7 0.01 0.23 0.23 98 1014.7
20260831030813 71 67 0.0 1.7 0.01 0.23 0.23 97 1015.0
20260831030536 72 63 1.7 1.7 0.01 0.23 0.23 97 1015.0
20260831025811 72 55 0.0 1.7 0.00 0.22 0.22 97 1015.0
20260831025539 72 129 0.0 1.7 0.00 0.22 0.22 97 1014.7
20260831024811 72 233 0.9 2.6 0.01 0.22 0.22 97 1015.0
20260831024310 72 221 1.7 3.5 0.01 0.22 0.22 97 1015.4
20260831023810 72 285 1.7 3.5 0.02 0.22 0.22 97 1015.4
20260831023757 72 333 0.9 1.7 0.02 0.22 0.22 97 1015.4
20260831022810 72 234 0.9 1.7 0.02 0.22 0.22 96 1015.4
20260831022307 72 162 0.9 1.7 0.02 0.22 0.22 96 1015.4
20260831021809 72 217 0.0 1.7 0.02 0.22 0.22 96 1015.4
20260831021307 72 224 0.0 1.7 0.02 0.22 0.22 96 1015.4
20260831021030 72 240 0.0 1.7 0.03 0.22 0.22 96 1015.4
20260831020306 72 221 0.9 2.6 0.03 0.22 0.22 96 1015.0
20260831015804 72 192 1.7 2.6 0.03 0.22 0.22 95 1014.7
20260831015305 72 219 0.0 2.6 0.03 0.22 0.22 95 1015.0
20260831014805 72 190 0.0 2.6 0.02 0.21 0.21 95 1014.7
20260831014304 72 189 0.9 2.6 0.02 0.21 0.21 95 1015.0
20260831014023 72 175 1.7 2.6 0.01 0.20 0.20 94 1015.0
20260831013304 72 192 1.7 2.6 0.01 0.20 0.20 94 1015.0
20260831012803 72 221 0.9 2.6 0.01 0.20 0.20 94 1015.0
20260831012305 72 235 0.0 1.7 0.01 0.20 0.20 94 1015.0
20260831011801 72 239 0.0 1.7 0.01 0.20 0.20 94 1014.7
20260831011301 72 229 1.7 1.7 0.01 0.20 0.20 94 1014.7
20260831010801 73 207 1.7 1.7 0.00 0.19 0.19 94 1014.7
20260831010300 73 221 1.7 3.5 0.00 0.19 0.19 94 1014.7
20260831005759 73 186 1.7 3.5 0.00 0.19 0.19 94 1014.7
20260831005259 73 290 3.5 3.5 0.00 0.19 0.19 94 1014.7
20260831004757 73 197 1.7 2.6 0.00 0.19 0.19 94 1014.3
20260831004257 73 152 1.7 3.5 0.00 0.19 0.19 93 1014.7
20260831003757 73 263 1.7 5.2 0.00 0.19 0.19 93 1014.3
20260831003256 73 187 2.6 5.2 0.00 0.19 0.19 93 1014.3
20260831002756 73 183 1.7 2.6 0.00 0.19 0.19 93 1014.7
20260831002255 73 155 0.9 2.6 0.00 0.19 0.19 93 1014.7
20260831001755 73 252 0.9 5.2 0.00 0.19 0.19 93 1014.7
20260831001255 73 190 2.6 5.2 0.00 0.19 0.19 94 1014.3
20260831000755 73 203 1.7 4.3 0.00 0.19 0.19 94 1014.7
20260831000518 73 223 0.0 4.3 0.00 0.19 0.19 94 1014.7
20260831000023 73 189 1.7 6.1 0.00 0.19 0.19 94 1014.3
20260830235253 73 157 1.7 6.1 0.00 0.19 0.19 94 1014.3
20260830234752 72 139 1.7 5.2 0.00 0.19 0.19 95 1014.3
20260830234251 72 164 1.7 5.2 0.00 0.19 0.19 95 1014.7
20260830233750 72 205 1.7 5.2 0.00 0.19 0.19 95 1014.7
20260830233249 72 207 1.7 4.3 0.00 0.19 0.19 95 1014.7
20260830233010 72 214 1.7 1.7 0.00 0.19 0.19 95 1014.7
20260830232510 72 206 0.0 3.5 0.00 0.19 0.19 95 1014.7
20260830231749 72 182 2.6 4.3 0.01 0.19 0.19 95 1014.3
20260830231507 72 170 0.0 4.3 0.01 0.19 0.19 95 1014.3
20260830230750 72 170 1.7 4.3 0.01 0.19 0.19 95 1014.7
20260830230248 72 119 0.0 1.7 0.01 0.19 0.19 95 1015.0
20260830225745 72 156 0.9 3.5 0.01 0.19 0.19 94 1014.7
20260830225247 72 180 1.7 3.5 0.01 0.19 0.19 94 1014.7
20260830224745 73 119 0.0 3.5 0.02 0.19 0.19 94 1014.3
20260830224245 73 125 1.7 5.2 0.02 0.19 0.19 94 1014.3
20260830224008 73 190 2.6 5.2 0.02 0.19 0.19 94 1014.3
20260830223244 73 174 1.7 4.3 0.02 0.19 0.19 93 1014.7
20260830222743 73 177 1.7 3.5 0.02 0.19 0.19 93 1015.0
20260830222511 73 205 1.7 2.6 0.02 0.19 0.19 93 1015.4
20260830221741 73 208 0.0 1.7 0.01 0.18 0.18 93 1015.4
20260830221243 73 234 1.7 1.7 0.01 0.18 0.18 93 1015.4
20260830220742 73 203 0.9 1.7 0.01 0.18 0.18 92 1015.0
20260830220243 73 198 0.9 1.7 0.01 0.18 0.18 92 1015.4
20260830215740 73 219 0.0 3.5 0.01 0.18 0.18 91 1015.4
20260830215240 73 202 0.0 3.5 0.01 0.18 0.18 91 1015.0
20260830214740 73 172 1.7 1.7 0.00 0.17 0.17 90 1015.0
20260830214244 74 224 0.0 1.7 0.00 0.17 0.17 90 1015.4
20260830214006 74 238 0.9 2.6 0.00 0.17 0.17 90 1015.0
20260830213505 74 178 1.7 2.6 0.00 0.17 0.17 90 1015.4
20260830212749 74 193 1.7 1.7 0.00 0.17 0.17 90 1015.4
20260830212237 74 236 1.7 1.7 0.00 0.17 0.17 89 1015.0
20260830211737 74 176 0.9 2.6 0.00 0.17 0.17 89 1015.4
20260830211453 74 202 0.0 2.6 0.00 0.17 0.17 89 1015.4
20260830210736 74 240 0.0 2.6 0.00 0.17 0.17 89 1015.4
20260830210456 74 204 0.9 2.6 0.00 0.17 0.17 88 1015.4
20260830205734 74 183 1.7 1.7 0.00 0.17 0.17 88 1015.4
20260830205234 74 196 1.7 1.7 0.00 0.17 0.17 87 1015.0
20260830205000 74 256 0.9 2.6 0.00 0.17 0.17 87 1015.4
20260830204233 74 205 1.7 3.5 0.00 0.17 0.17 88 1015.4
20260830204220 74 201 1.7 3.5 0.00 0.17 0.17 88 1015.0
20260830203243 74 169 0.9 3.5 0.00 0.17 0.17 88 1015.0
20260830203009 74 169 1.7 4.3 0.00 0.17 0.17 88 1015.4
20260830202231 74 219 1.7 4.3 0.00 0.17 0.17 89 1015.0
20260830201947 74 237 0.9 3.5 0.00 0.17 0.17 89 1015.0
20260830201228 74 227 2.6 2.6 0.00 0.17 0.17 89 1015.4
20260830200728 74 240 1.7 4.3 0.00 0.17 0.17 88 1015.4
20260830200230 74 233 1.7 4.3 0.00 0.17 0.17 87 1015.4
20260830195729 74 234 2.6 4.3 0.00 0.17 0.17 86 1015.4
20260830195228 74 260 3.5 5.2 0.00 0.17 0.17 85 1015.4
20260830194726 75 217 1.7 7.0 0.00 0.17 0.17 86 1015.0
20260830194227 75 242 1.7 7.0 0.01 0.17 0.17 85 1015.4
20260830193725 75 262 1.7 6.1 0.03 0.17 0.17 87 1015.4
20260830193225 74 202 1.7 6.1 0.03 0.17 0.17 88 1015.0
20260830192727 74 237 1.7 3.5 0.03 0.17 0.17 90 1015.0
20260830192446 73 235 0.9 3.5 0.03 0.17 0.17 91 1014.7
20260830191723 73 210 1.7 3.5 0.03 0.17 0.17 92 1015.0
20260830191223 73 229 1.7 3.5 0.03 0.17 0.17 92 1014.7
20260830190724 73 266 1.7 3.5 0.03 0.17 0.17 93 1014.7
20260830190223 73 203 0.0 1.7 0.03 0.17 0.17 92 1015.0
20260830185722 73 242 1.7 1.7 0.03 0.17 0.17 91 1015.0
20260830185222 74 272 0.0 3.5 0.03 0.17 0.17 89 1015.0
20260830184722 74 209 1.7 3.5 0.03 0.17 0.17 87 1015.0
20260830184220 75 241 2.6 4.3 0.01 0.15 0.15 85 1015.4
20260830183719 76 266 2.6 5.2 0.00 0.14 0.14 81 1015.0
20260830183218 77 285 3.5 5.2 0.00 0.14 0.14 78 1015.0
20260830182718 78 258 2.6 5.2 0.00 0.14 0.14 77 1014.7
20260830182219 79 232 3.5 7.8 0.00 0.14 0.14 74 1014.3
20260830181718 80 252 1.7 7.8 0.00 0.14 0.14 72 1014.7
20260830181217 80 292 0.9 5.2 0.00 0.14 0.14 73 1014.3
20260830180719 80 206 4.3 5.2 0.00 0.14 0.14 72 1014.0